This demonstration page uses our WeatherBlox Daily Observations layout. Learn more.

Left ArrowRight Arrow

44.8408, -93.29828

Hourly Observations for May 2, 2016

Temp ( °F °C ) Dew Point ( °F °C ) Humidity (%) Winds ( mph kmh ) Pressure ( in mb ) Visibility ( mi km ) Precip ( " mm )
12:53 am 00:53 Clear 50 10 35 1.7 57 57 NNE 3 6 30.13 1020 10 16 0.00 0.00
1:53 am 01:53 Clear 49 9.4 35 1.7 59 59 N 3 6 30.13 1020 10 16 0.00 0.00
2:53 am 02:53 Clear 45 7.2 36 2.2 71 71 NW 3 6 30.13 1020 10 16 0.00 0.00
3:53 am 03:53 Clear 43 6.1 37 2.8 80 80 Calm 30.12 1020 10 16 0.00 0.00
4:53 am 04:53 Clear 43 6.1 36 2.2 76 76 Calm 30.12 1020 10 16 0.00 0.00
5:53 am 05:53 Clear 41 5 36 2.2 82 82 NW 5 7 30.12 1020 10 16 0.00 0.00
6:53 am 06:53 Sunny 44 6.7 36 2.2 73 73 Calm 30.13 1020 10 16 0.00 0.00
7:53 am 07:53 Sunny 48 8.9 37 2.8 66 66 Calm 30.13 1020 10 16 0.00 0.00
8:53 am 08:53 Sunny 52 11.1 37 2.8 57 57 Calm 30.12 1020 10 16 0.00 0.00
9:53 am 09:53 Sunny 57 13.9 37 2.8 47 47 Calm 30.11 1020 10 16 0.00 0.00
10:53 am 10:53 Sunny 61 16.1 34 1.1 36 36 N 7 11 30.11 1020 10 16 0.00 0.00
11:53 am 11:53 Sunny 62 16.7 30 -1.1 30 30 Calm 30.10 1019 10 16 0.00 0.00
12:53 pm 12:53 Mostly Sunny 62 16.7 30 -1.1 30 30 Calm 30.08 1019 10 16 0.00 0.00
1:53 pm 13:53 Mostly Sunny 63 17.2 30 -1.1 29 29 Calm 30.06 1018 10 16 0.00 0.00
2:53 pm 14:53 Mostly Sunny 64 17.8 32 0 30 30 Calm 30.05 1018 10 16 0.00 0.00
3:53 pm 15:53 Mostly Sunny 64 17.8 32 0 30 30 VRB 3 6 30.03 1017 10 16 0.00 0.00
4:53 pm 16:53 Mostly Sunny 65 18.3 30 -1.1 27 27 Calm 30.01 1016 10 16 0.00 0.00
5:53 pm 17:53 Mostly Sunny 66 18.9 30 -1.1 26 26 VRB 7 11 30.00 1016 10 16 0.00 0.00
6:53 pm 18:53 Mostly Sunny 66 18.9 29 -1.7 25 25 W 7 11 30.00 1016 10 16 0.00 0.00
7:53 pm 19:53 Mostly Sunny 64 17.8 27 -2.8 25 25 W 7 11 30.00 1016 10 16 0.00 0.00
8:53 pm 20:53 Mostly Clear 61 16.1 28 -2.2 29 29 Calm 30.01 1016 10 16 0.00 0.00
9:53 pm 21:53 Clear 59 15 30 -1.1 33 33 Calm 30.01 1016 10 16 0.00 0.00
10:53 pm 22:53 Clear 57 13.9 32 0 39 39 SSW 5 7 30.00 1016 10 16 0.00 0.00
11:53 pm 23:53 Clear 56 13.3 34 1.1 44 44 SW 7 11 29.99 1016 10 16 0.00 0.00

Powered by AerisWeather